When you browse on this site, cookies collect data to enhance your experience and personalize the content and advertising you see.
Visit our Privacy Policy to learn more. By continuing to use the site, you agree to this use of cookies and data.
  • In Hungary
  • List of Countries
  • For 7 days
  • Water Temperature
  • Weather Map
  • News
  • Weather Widgets
  • user-avatar
    Login

    Hourly Weather Carregado

    Today, 19 November, Tuesday

    Time Temperature Precipitation Wind Pressure Humidity
    00:00 +9°C° 0 mm 0 mps 758 mmHg 82%
    01:00 +9°C° 0 mm 0 mps 757 mmHg 81%
    02:00 +9°C° 0 mm 0 mps 757 mmHg 80%
    03:00 +9°C° 0 mm 0 mps 757 mmHg 79%
    04:00 +9°C° 0 mm 0 mps 757 mmHg 78%
    05:00 +10°C° 0 mm 1 mps 757 mmHg 80%
    06:00 +10°C° 0 mm 1 mps 757 mmHg 78%
    07:00 +11°C° 0 mm 1 mps 757 mmHg 77%
    08:00 +10°C° 0 mm 2 mps 757 mmHg 76%
    09:00 +12°C° 0 mm 2 mps 757 mmHg 75%
    10:00 +12°C° 0 mm 2 mps 757 mmHg 74%
    11:00 +12°C° 0 mm 2 mps 756 mmHg 72%
    12:00 +12°C° 0 mm 2 mps 756 mmHg 74%
    13:00 +13°C° 0 mm 2 mps 755 mmHg 75%
    14:00 +12°C° 0 mm 3 mps 754 mmHg 76%
    15:00 +12°C° 0 mm 3 mps 754 mmHg 79%
    16:00 +11°C° 0 mm 3 mps 754 mmHg 81%
    17:00 +11°C° 0 mm 3 mps 754 mmHg 83%
    18:00 +11°C° 0.2 mm 3 mps 754 mmHg 84%
    19:00 +11°C° 0.2 mm 3 mps 754 mmHg 84%
    20:00 +11°C° 0.2 mm 3 mps 753 mmHg 84%
    21:00 +11°C° 2.8 mm 4 mps 753 mmHg 87%
    22:00 +11°C° 2.8 mm 4 mps 753 mmHg 90%
    23:00 +10°C° 2.8 mm 4 mps 752 mmHg 92%

    Tomorrow, 20 November, Wednesday

    Time Temperature Precipitation Wind Pressure Humidity
    00:00 +11°C° 2.2 mm 4 mps 752 mmHg 93%
    01:00 +11°C° 2.2 mm 3 mps 752 mmHg 94%
    02:00 +11°C° 2.2 mm 3 mps 751 mmHg 94%
    03:00 +12°C° 0.2 mm 2 mps 751 mmHg 95%
    04:00 +10°C° 0.2 mm 2 mps 751 mmHg 95%
    05:00 +10°C° 0.2 mm 2 mps 751 mmHg 95%
    06:00 +11°C° 0 mm 1 mps 751 mmHg 94%
    07:00 +12°C° 0 mm 1 mps 751 mmHg 92%
    08:00 +12°C° 0 mm 1 mps 751 mmHg 91%
    09:00 +13°C° 0 mm 2 mps 751 mmHg 85%
    10:00 +14°C° 0 mm 2 mps 751 mmHg 78%
    11:00 +14°C° 0 mm 3 mps 751 mmHg 72%
    12:00 +16°C° 0.4 mm 3 mps 750 mmHg 71%
    13:00 +15°C° 0.4 mm 4 mps 750 mmHg 70%
    14:00 +15°C° 0.4 mm 5 mps 750 mmHg 70%
    15:00 +14°C° 0.1 mm 4 mps 750 mmHg 75%
    16:00 +12°C° 0.1 mm 3 mps 750 mmHg 81%
    17:00 +12°C° 0.1 mm 2 mps 750 mmHg 86%
    18:00 +12°C° 0 mm 2 mps 750 mmHg 87%
    19:00 +12°C° 0 mm 2 mps 750 mmHg 87%
    20:00 +10°C° 0 mm 2 mps 751 mmHg 88%
    21:00 +12°C° 0.1 mm 2 mps 751 mmHg 88%
    22:00 +12°C° 0.1 mm 2 mps 751 mmHg 88%
    23:00 +12°C° 0.1 mm 2 mps 751 mmHg 88%

    Day after tomorrow, 21 November, Thursday

    Time Temperature Precipitation Wind Pressure Humidity
    00:00 +12°C° 0 mm 2 mps 750 mmHg 89%
    01:00 +12°C° 0 mm 1 mps 750 mmHg 89%
    02:00 +12°C° 0 mm 1 mps 750 mmHg 89%
    03:00 +12°C° 0.1 mm 1 mps 750 mmHg 89%
    04:00 +12°C° 0.1 mm 1 mps 750 mmHg 89%
    05:00 +12°C° 0.1 mm 1 mps 750 mmHg 89%
    06:00 +13°C° 0.1 mm 1 mps 750 mmHg 88%
    07:00 +13°C° 0.1 mm 2 mps 750 mmHg 87%
    08:00 +14°C° 0.1 mm 2 mps 751 mmHg 87%
    09:00 +14°C° 0.2 mm 2 mps 750 mmHg 81%
    10:00 +15°C° 0.2 mm 2 mps 750 mmHg 75%
    11:00 +16°C° 0.2 mm 3 mps 750 mmHg 70%
    12:00 +16°C° 0.1 mm 3 mps 750 mmHg 71%
    13:00 +16°C° 0.1 mm 2 mps 750 mmHg 73%
    14:00 +15°C° 0.1 mm 2 mps 749 mmHg 75%
    15:00 +15°C° 0.1 mm 2 mps 749 mmHg 77%
    16:00 +14°C° 0.1 mm 2 mps 749 mmHg 80%
    17:00 +14°C° 0.1 mm 2 mps 749 mmHg 83%
    18:00 +13°C° 0 mm 2 mps 749 mmHg 85%
    19:00 +13°C° 0 mm 2 mps 749 mmHg 87%
    20:00 +13°C° 0 mm 2 mps 749 mmHg 90%
    21:00 +12°C° 0 mm 3 mps 749 mmHg 90%
    22:00 +12°C° 0 mm 4 mps 748 mmHg 89%
    23:00 +12°C° 0 mm 4 mps 748 mmHg 89%

    22 November, Friday

    Time Temperature Precipitation Wind Pressure Humidity
    00:00 +13°C° 0.6 mm 6 mps 747 mmHg 89%
    01:00 +14°C° 0.6 mm 7 mps 747 mmHg 89%
    02:00 +13°C° 0.6 mm 8 mps 746 mmHg 89%
    03:00 +15°C° 0.5 mm 9 mps 745 mmHg 88%
    04:00 +14°C° 0.5 mm 10 mps 744 mmHg 88%
    05:00 +16°C° 0.5 mm 10 mps 744 mmHg 88%
    06:00 +16°C° 0.8 mm 11 mps 743 mmHg 88%
    07:00 +16°C° 0.8 mm 11 mps 743 mmHg 88%
    08:00 +16°C° 0.8 mm 11 mps 743 mmHg 89%
    09:00 +16°C° 1.9 mm 10 mps 743 mmHg 85%
    10:00 +16°C° 1.9 mm 9 mps 743 mmHg 81%
    11:00 +16°C° 1.9 mm 9 mps 743 mmHg 77%
    12:00 +16°C° 0 mm 9 mps 743 mmHg 73%
    13:00 +16°C° 0 mm 8 mps 743 mmHg 70%
    14:00 +16°C° 0 mm 8 mps 744 mmHg 66%
    15:00 +15°C° 0.1 mm 8 mps 744 mmHg 70%
    16:00 +14°C° 0.1 mm 7 mps 744 mmHg 75%
    17:00 +13°C° 0.1 mm 6 mps 745 mmHg 79%
    18:00 +13°C° 0.1 mm 6 mps 745 mmHg 80%
    19:00 +13°C° 0.1 mm 6 mps 745 mmHg 80%
    20:00 +13°C° 0.1 mm 6 mps 746 mmHg 81%
    21:00 +12°C° 0.2 mm 7 mps 746 mmHg 79%
    22:00 +12°C° 0.2 mm 8 mps 746 mmHg 78%
    23:00 +11°C° 0.2 mm 8 mps 746 mmHg 76%

    23 November, Saturday

    Time Temperature Precipitation Wind Pressure Humidity
    00:00 +11°C° 0.1 mm 8 mps 747 mmHg 75%
    01:00 +11°C° 0.1 mm 7 mps 747 mmHg 74%
    02:00 +10°C° 0.1 mm 7 mps 747 mmHg 73%
    03:00 +10°C° 0 mm 6 mps 748 mmHg 75%
    04:00 +10°C° 0 mm 5 mps 748 mmHg 78%
    05:00 +10°C° 0 mm 4 mps 749 mmHg 80%
    06:00 +11°C° 0 mm 4 mps 750 mmHg 78%
    07:00 +11°C° 0 mm 4 mps 751 mmHg 76%
    08:00 +12°C° 0 mm 3 mps 752 mmHg 74%
    09:00 +13°C° 0.1 mm 4 mps 752 mmHg 69%
    10:00 +14°C° 0.1 mm 5 mps 753 mmHg 63%
    11:00 +15°C° 0.1 mm 6 mps 753 mmHg 58%
    12:00 +14°C° 0 mm 6 mps 753 mmHg 57%
    13:00 +14°C° 0 mm 6 mps 753 mmHg 57%
    14:00 +14°C° 0 mm 5 mps 753 mmHg 57%
    15:00 +13°C° 0.1 mm 5 mps 753 mmHg 64%
    16:00 +12°C° 0.1 mm 4 mps 754 mmHg 71%
    17:00 +11°C° 0.1 mm 3 mps 754 mmHg 79%
    18:00 +11°C° 0 mm 3 mps 755 mmHg 80%
    19:00 +10°C° 0 mm 2 mps 755 mmHg 82%
    20:00 +10°C° 0 mm 2 mps 756 mmHg 84%
    21:00 +10°C° 0 mm 2 mps 756 mmHg 84%
    22:00 +10°C° 0 mm 2 mps 756 mmHg 84%
    23:00 +10°C° 0 mm 1 mps 757 mmHg 85%

    24 November, Sunday

    Time Temperature Precipitation Wind Pressure Humidity
    00:00 +10°C° 0 mm 1 mps 757 mmHg 85%
    01:00 +10°C° 0 mm 1 mps 757 mmHg 86%
    02:00 +10°C° 0 mm 1 mps 757 mmHg 87%
    03:00 +10°C° 0 mm 1 mps 757 mmHg 88%
    04:00 +10°C° 0 mm 1 mps 757 mmHg 88%
    05:00 +10°C° 0 mm 1 mps 757 mmHg 88%
    06:00 +11°C° 0 mm 1 mps 758 mmHg 86%
    07:00 +12°C° 0 mm 1 mps 758 mmHg 83%
    08:00 +12°C° 0 mm 1 mps 758 mmHg 80%
    09:00 +14°C° 0 mm 1 mps 759 mmHg 75%
    10:00 +15°C° 0 mm 2 mps 759 mmHg 69%
    11:00 +16°C° 0 mm 2 mps 759 mmHg 63%
    12:00 +16°C° 0 mm 3 mps 758 mmHg 63%
    13:00 +16°C° 0 mm 3 mps 758 mmHg 63%
    14:00 +17°C° 0 mm 3 mps 757 mmHg 64%
    15:00 +16°C° 0 mm 3 mps 758 mmHg 69%
    16:00 +14°C° 0 mm 3 mps 758 mmHg 75%
    17:00 +13°C° 0 mm 3 mps 758 mmHg 81%
    18:00 +12°C° 0 mm 3 mps 758 mmHg 84%
    19:00 +12°C° 0 mm 3 mps 758 mmHg 88%
    20:00 +12°C° 0 mm 3 mps 758 mmHg 91%
    21:00 +12°C° 0 mm 3 mps 758 mmHg 92%
    22:00 +12°C° 0 mm 3 mps 758 mmHg 93%
    23:00 +13°C° 0 mm 3 mps 758 mmHg 94%
    Show more